2023/01/29 00:00:00,57.3,-2.3
2023/01/29 00:10:00,57.0,-1.7
2023/01/29 00:20:00,57.0,-2.1
2023/01/29 00:30:00,56.8,-2.3
2023/01/29 00:40:00,56.7,-2.4
2023/01/29 00:50:00,56.6,-1.7
2023/01/29 01:00:00,56.6,-2.6
2023/01/29 01:10:00,56.6,-2.3
2023/01/29 01:20:00,56.6,-1.7
2023/01/29 01:30:00,56.6,-2.0
2023/01/29 01:40:00,56.6,-2.1
2023/01/29 01:50:00,56.5,-2.4
2023/01/29 02:00:00,56.3,-2.1
2023/01/29 02:10:00,56.1,-2.6
2023/01/29 02:20:00,56.1,-1.8
2023/01/29 02:30:00,56.0,-3.2
2023/01/29 02:40:00,55.9,-1.8
2023/01/29 02:50:00,55.7,-2.4
2023/01/29 03:00:00,55.6,-2.2
2023/01/29 03:10:00,55.6,-2.4
2023/01/29 03:20:00,55.6,-2.6
2023/01/29 03:30:00,55.6,-2.5
2023/01/29 03:40:00,55.6,-2.2
2023/01/29 03:50:00,55.6,-2.3
2023/01/29 04:00:00,55.5,-2.4
2023/01/29 04:10:00,55.4,-2.4
2023/01/29 04:20:00,55.2,-2.4
2023/01/29 04:30:00,55.3,-2.8
2023/01/29 04:40:00,55.2,-3.2
2023/01/29 04:50:00,55.2,-2.4
2023/01/29 05:00:00,55.1,-3.3
2023/01/29 05:10:00,54.9,-2.9
2023/01/29 05:20:00,54.8,-3.4
2023/01/29 05:30:00,54.7,-3.5
2023/01/29 05:40:00,54.7,-3.2
2023/01/29 05:50:00,54.5,-3.4
2023/01/29 06:00:00,54.4,-3.5
2023/01/29 06:10:00,54.5,-3.4
2023/01/29 06:20:00,54.6,-2.8
2023/01/29 06:30:00,54.7,-2.8
2023/01/29 06:40:00,54.7,-3.4
2023/01/29 06:50:00,54.6,-3.2
2023/01/29 07:00:00,54.4,-2.3
2023/01/29 07:10:00,54.4,-2.7
2023/01/29 07:20:00,54.4,-2.7
2023/01/29 07:30:00,54.3,-3.3
2023/01/29 07:40:00,54.2,-2.8
2023/01/29 07:50:00,54.0,-2.8
2023/01/29 08:00:00,54.0,-2.9
2023/01/29 08:10:00,54.0,-1.8
2023/01/29 08:20:00,54.0,-1.7
2023/01/29 08:30:00,53.8,-1.6
2023/01/29 08:40:00,53.7,-2.2
2023/01/29 08:50:00,53.7,-1.1
2023/01/29 09:00:00,53.7,-0.6
2023/01/29 09:10:00,53.7,-0.1
2023/01/29 09:20:00,53.7,-0.4
2023/01/29 09:30:00,53.6, 0.0
2023/01/29 09:40:00,53.5, 0.7
2023/01/29 09:50:00,53.5, 0.0
2023/01/29 10:00:00,53.4, 0.1
2023/01/29 10:10:00,53.3, 0.8
2023/01/29 10:20:00,53.1, 1.6
2023/01/29 10:30:00,53.1, 2.1
2023/01/29 10:40:00,53.2, 1.4
2023/01/29 10:50:00,53.2, 2.4
2023/01/29 11:00:00,53.0, 2.3
2023/01/29 11:10:00,53.0, 2.2
2023/01/29 11:20:00,52.9, 2.4
2023/01/29 11:30:00,52.7, 2.8
2023/01/29 11:40:00,52.7, 3.1
2023/01/29 11:50:00,52.4, 4.4
2023/01/29 12:00:00,52.4, 4.1
2023/01/29 12:10:00,52.4, 3.4
2023/01/29 12:20:00,52.3, 4.0
2023/01/29 12:30:00,52.1, 3.3
2023/01/29 12:40:00,51.9, 3.2
2023/01/29 12:50:00,51.9, 3.1
2023/01/29 13:00:00,51.9, 3.0
2023/01/29 13:10:00,51.8, 3.6
2023/01/29 13:20:00,51.8, 3.6
2023/01/29 13:30:00,51.8, 3.9
2023/01/29 13:40:00,51.9, 3.9
2023/01/29 13:50:00,51.8, 4.2
2023/01/29 14:00:00,51.8, 4.0
2023/01/29 14:10:00,51.8, 4.2
2023/01/29 14:20:00,51.8, 3.7
2023/01/29 14:30:00,51.9, 3.6
2023/01/29 14:40:00,51.8, 2.8
2023/01/29 14:50:00,51.8, 3.3
2023/01/29 15:00:00,51.7, 3.2
2023/01/29 15:10:00,51.7, 2.5
2023/01/29 15:20:00,51.7, 4.6
2023/01/29 15:30:00,51.7, 9.5
2023/01/29 15:40:00,51.6,10.4
2023/01/29 15:50:00,51.6, 4.2
2023/01/29 16:00:00,51.4, 3.4
2023/01/29 16:10:00,51.3, 2.3
2023/01/29 16:20:00,51.2, 1.1
2023/01/29 16:30:00,51.2, 1.1
2023/01/29 16:40:00,51.2, 0.9
2023/01/29 16:50:00,51.2, 0.5
2023/01/29 17:00:00,51.2, 0.6
2023/01/29 17:10:00,51.3,-0.3
2023/01/29 17:20:00,51.3,-0.4
2023/01/29 17:30:00,51.9,-1.0
2023/01/29 17:40:00,52.5,-0.6
2023/01/29 17:50:00,52.7,-1.1
2023/01/29 18:00:00,52.6,-1.3
2023/01/29 18:10:00,52.4,-1.1
2023/01/29 18:20:00,51.4,-1.2
2023/01/29 18:30:00,51.0,-1.4
2023/01/29 18:40:00,51.3,-1.4
2023/01/29 18:50:00,51.2,-1.4
2023/01/29 19:00:00,51.0,-1.7
2023/01/29 19:10:00,51.0,-2.4
2023/01/29 19:20:00,51.0,-2.1
2023/01/29 19:30:00,51.0,-2.3
2023/01/29 19:40:00,50.9,-2.0
2023/01/29 19:50:00,50.9,-2.1
2023/01/29 20:00:00,51.0,-2.2
2023/01/29 20:10:00,50.9,-2.5
2023/01/29 20:20:00,50.9,-2.2
2023/01/29 20:30:00,50.8,-2.8
2023/01/29 20:40:00,50.8,-2.7
2023/01/29 20:50:00,50.7,-2.4
2023/01/29 21:00:00,50.5,-2.7
2023/01/29 21:10:00,50.4,-2.8
2023/01/29 21:20:00,50.4,-2.5
2023/01/29 21:30:00,50.3,-2.2
2023/01/29 21:40:00,50.3,-2.1
2023/01/29 21:50:00,50.2,-2.4
2023/01/29 22:00:00,50.1,-2.2
2023/01/29 22:10:00,50.1,-2.3
2023/01/29 22:20:00,50.1,-2.2
2023/01/29 22:30:00,50.2,-2.1
2023/01/29 22:40:00,50.2,-2.2
2023/01/29 22:50:00,50.2,-2.1
2023/01/29 23:00:00,50.3,-2.3
2023/01/29 23:10:00,50.3,-2.7
2023/01/29 23:20:00,50.3,-2.5
2023/01/29 23:30:00,50.3,-2.8
2023/01/29 23:40:00,50.2,-3.3
2023/01/29 23:50:00,50.2,-2.8
